| time (UTC) | temp C | wind direction | speed KPH | gust KPH | rain 1hr cm | rain 24hr cm | rain mn cm | humidity % | barometer mb |
| 20260506043355 | 20 | 304 | 3.2 | 3.2 | 0.00 | 0.23 | 0.23 | 38 | 1005.6 |
| 20260506040354 | 20 | 305 | 6.4 | 8.0 | 0.00 | 0.23 | 0.23 | 37 | 1005.2 |
| 20260506033353 | 21 | 306 | 11.3 | 11.3 | 0.00 | 0.23 | 0.23 | 34 | 1004.8 |
| 20260506030353 | 21 | 300 | 6.4 | 6.4 | 0.00 | 0.23 | 0.23 | 35 | 1005.0 |
| 20260506023352 | 22 | 256 | 8.0 | 11.3 | 0.00 | 0.23 | 0.23 | 33 | 1004.5 |
| 20260506020351 | 22 | 229 | 17.7 | 17.7 | 0.00 | 0.23 | 0.23 | 30 | 1003.8 |
| 20260506013349 | 23 | 247 | 16.1 | 16.1 | 0.00 | 0.23 | 0.23 | 27 | 1003.1 |
| 20260506010348 | 24 | 245 | 9.7 | 9.7 | 0.00 | 0.23 | 0.23 | 26 | 1002.5 |
| 20260506003347 | 25 | 252 | 9.7 | 12.9 | 0.00 | 0.23 | 0.23 | 25 | 1002.2 |
| 20260506000347 | 26 | 261 | 12.9 | 14.5 | 0.15 | 0.23 | 0.23 | 24 | 1002.0 |
| 20260505233345 | 25 | 255 | 14.5 | 16.1 | 0.20 | 0.23 | 0.23 | 24 | 1001.9 |
| 20260505230344 | 25 | 282 | 20.9 | 20.9 | 0.03 | 0.05 | 0.05 | 23 | 1001.9 |
| 20260505223343 | 25 | 276 | 19.3 | 19.3 | 0.00 | 0.00 | 0.00 | 22 | 1002.1 |
| 20260505220342 | 26 | 280 | 17.7 | 17.7 | 0.00 | 0.03 | 0.00 | 23 | 1002.4 |
| 20260505213342 | 25 | 270 | 12.9 | 14.5 | 0.00 | 0.08 | 0.00 | 24 | 1002.5 |
| 20260505210340 | 26 | 264 | 12.9 | 12.9 | 0.00 | 0.13 | 0.00 | 22 | 1002.3 |
| 20260505203339 | 26 | 261 | 12.9 | 14.5 | 0.00 | 0.15 | 0.00 | 22 | 1002.6 |
| 20260505200338 | 26 | 248 | 9.7 | 9.7 | 0.00 | 0.15 | 0.00 | 23 | 1002.7 |
| 20260505193337 | 26 | 268 | 9.7 | 19.3 | 0.00 | 0.15 | 0.00 | 24 | 1002.9 |
| 20260505190336 | 26 | 285 | 8.0 | 12.9 | 0.00 | 0.15 | 0.00 | 23 | 1003.0 |
| 20260505183336 | 26 | 291 | 9.7 | 14.5 | 0.00 | 0.15 | 0.00 | 23 | 1003.1 |
| 20260505180334 | 26 | 297 | 9.7 | 17.7 | 0.00 | 0.15 | 0.00 | 22 | 1003.3 |
| 20260505173333 | 26 | 314 | 11.3 | 19.3 | 0.00 | 0.15 | 0.00 | 21 | 1003.5 |
| 20260505163331 | 25 | 340 | 11.3 | 20.9 | 0.00 | 0.15 | 0.00 | 23 | 1003.8 |
| 20260505160330 | 25 | 317 | 14.5 | 24.1 | 0.00 | 0.15 | 0.00 | 23 | 1003.8 |
| 20260505153329 | 23 | 320 | 11.3 | 19.3 | 0.00 | 0.15 | 0.00 | 25 | 1003.9 |
| 20260505150328 | 22 | 306 | 11.3 | 20.9 | 0.00 | 0.15 | 0.00 | 29 | 1004.4 |
| 20260505140326 | 20 | 303 | 14.5 | 22.5 | 0.00 | 0.15 | 0.00 | 38 | 1004.9 |
| 20260505123323 | 17 | 259 | 9.7 | 16.1 | 0.00 | 0.15 | 0.00 | 45 | 1004.8 |
| 20260505120322 | 16 | 235 | 6.4 | 8.0 | 0.00 | 0.15 | 0.00 | 50 | 1005.0 |
| 20260505113321 | 17 | 304 | 1.6 | 4.8 | 0.00 | 0.15 | 0.00 | 43 | 1004.2 |
| 20260505110320 | 17 | 319 | 4.8 | 8.0 | 0.00 | 0.15 | 0.00 | 46 | 1004.7 |
| 20260505100318 | 17 | 255 | 12.9 | 17.7 | 0.00 | 0.15 | 0.00 | 42 | 1003.6 |
| 20260505093317 | 17 | 250 | 9.7 | 14.5 | 0.00 | 0.15 | 0.00 | 43 | 1003.7 |
| 20260505090316 | 18 | 276 | 8.0 | 16.1 | 0.00 | 0.15 | 0.00 | 38 | 1003.6 |
| 20260505083315 | 17 | 248 | 4.8 | 9.7 | 0.00 | 0.15 | 0.00 | 44 | 1003.8 |
| 20260505074014 | 17 | 340 | 9.7 | 14.5 | 0.00 | 0.15 | 0.00 | 44 | 1004.1 |
| 20260505071013 | 18 | 274 | 6.4 | 9.7 | 0.00 | 0.15 | 0.00 | 37 | 1003.7 |
| 20260505064012 | 19 | 255 | 6.4 | 9.7 | 0.00 | 0.15 | 0.00 | 34 | 1003.5 |
| 20260505061011 | 20 | 253 | 6.4 | 9.7 | 0.00 | 0.15 | 0.00 | 33 | 1003.6 |
| 20260505054010 | 20 | 258 | 4.8 | 8.0 | 0.00 | 0.15 | 0.00 | 32 | 1003.7 |
| 20260505051009 | 20 | 250 | 4.8 | 8.0 | 0.00 | 0.15 | 0.00 | 30 | 1003.4 |